Вернуться в каталог

NOAA 17 DEB

АктивенPO
NORAD 48166·DEBRIS·🇺🇸 United States

Запущен Jun 24, 2002 с Vandenberg Space Force Base

Loading…

Ближайшие Пролёты (ближайшие 24 часа)

TLE

СвежийSource: Space-Track

Эпоха: Sep 14, 2026, 01:27 UTC

1 48166U 02032G   26257.06042900  .00007947  00000-0  13730-2 0  9998
2 48166  98.7864 278.0890 0009201 238.8938 121.1363 14.68680149289616

Отслеживайте NOAA 17 DEB в реальном времени с AllMySat

Download on the App Store